Погода в Прохорах

Россия / Приморский край     44°31′27″N   132°42′03″E
темп.,
°C
ветер,
м/с
пор.,
м/с
влажн.,
%
обл.,
%
осадки,
мм/ч
давл.,
гПа
погр.,
м
6 марта, сб
сб601:00−14ссз9127093 0.1 10321109
04:00−16ссз7106888 0.1 10341027
07:00−17ссз7116833 0.0 10361055
10:00−16ссз696322 0.0 1037990
13:00−14ссз47670 0.0 10361006
16:00−12ссз356238 0.0 1035940
19:00−13ю127651 0.0 103522
22:00−14ююв227754 0.0 103624
7 марта, вс
вс701:00−14ю238010 0.0 103529
04:00−14ю34855 0.0 103474
07:00−15ю23850 0.0 103348
10:00−11ю347650 0.0 1031218
13:00−6юз47650 0.0 1028614
16:00−4юз58670 0.0 1025639
19:00−6юз34820 0.0 102440
22:00−8юз37880 0.0 1026124
8 марта, пн
пн801:00−10з22890 0.0 102724
04:00−10ю228630 0.0 102823
07:00−10з018773 0.0 103021
10:00−8ссз018264 0.0 1031203
13:00−5всв00670 0.0 1029392
16:00−3ю12610 0.0 1027334
19:00−4ююв22680 0.0 102721
22:00−5ююв33720 0.0 102727
9 марта, вт
вт901:00−6ю44770 0.0 102583
04:00−6ю410770 0.0 1024190
07:00−5ю512850 0.0 1021278
10:000ююз615841 0.0 1019569
13:00+3ююз7147493 0.0 1015807
16:00+4юз8156488 0.0 1013743
19:000зсз61472100 0.6 10151095
22:00−3зсз6156770 0.6 10191099
10 марта, ср
ср1001:00−5сз6156865 0.0 10221129
04:00−6сз5147532 0.0 1024833
07:00−7зсз312750 0.0 1026500
10:00−5сз510590 0.0 1028728
13:00−2ссз47500 0.0 1028851
16:000сз23390 0.0 1027880
19:00−2ю224741 0.0 102724
22:00−2юв344953 0.0 102884